Location: �perlecques
(50.8057°N, 2.1521°E)
Time: 02:32:57
(UTC+00:00)

Max Valier Satellite - Visible Passes

Search period start: 16 April 2024 00:00
Search period end: 26 April 2024 00:00
Orbit: 364 x 372 km, 97.1° (Epoch: 15 April)

Date Brightness Start Highest point End Pass type
(mag) Time Alt. Az. Time Alt. Az. Time Alt. Az.
16 Apr ? 19:36:46 10° SSW 19:39:29 36° W 19:42:13 10° NNW visible
17 Apr ? 20:08:49 10° SW 20:10:37 15° W 20:12:25 10° NW visible
19 Apr ? 19:37:54 10° SSW 19:40:36 35° W 19:43:19 10° NNW visible
20 Apr ? 20:09:17 10° SW 20:11:04 15° W 20:12:51 10° NW visible
22 Apr ? 19:37:02 10° SSW 19:39:45 36° W 19:42:28 10° NNW visible
23 Apr ? 20:07:39 10° SW 20:09:32 16° W 20:11:25 10° NW visible
